Flight Track Log - Related Links

Times and Time Zones

All times are in EDT time to prevent confusion due to time zone crossing. See the N682RW flight status page for this flight to view local times or setup timezone preferences in your user account.

Time Position Orientation Groundspeed Altitude Reporting Facility
EDT Latitude Longitude Course Direction KTS MPH feet Rate Location/Type
Sun 11:50:03 PM 41.8000 -87.7167 98° East 166 191 2,800  Level Chicago TRACON
Sun 11:50:45 PM 41.7925 -87.6631 101° East 194 223 5,100 3,204 Climbing Chicago Center
Sun 11:51:46 PM 41.7889 -87.5675 93° East 259 298 8,300 3,246 Climbing Chicago Center
Sun 11:52:47 PM 41.7822 -87.4572 95° East 297 342 11,700 2,926 Climbing Chicago Center
Sun 11:53:47 PM 41.7767 -87.3336 93° East 331 381 14,200 2,529 Climbing Chicago Center
Sun 11:54:48 PM 41.7689 -87.1883 94° East 388 447 16,800 2,331 Climbing Chicago Center
Sun 11:55:00 PM 41.7616 -87.1658 98° East  Level FlightAware Approximate
Sun 11:55:48 PM 41.7592 -87.0347 95° East 414 476 18,900  Level Chicago Center
Sun 11:56:49 PM 41.7622 -86.8778 88° East 420 483 19,000 49 Climbing Chicago Center
Sun 11:57:50 PM 41.7642 -86.7211 89° East 419 482 19,000  Level Chicago Center
Sun 11:58:50 PM 41.7653 -86.5794 89° East 421 484 19,000  Level Chicago Center
Sun 11:59:51 PM 41.7664 -86.4236 89° East 419 482 19,000  Level Chicago Center
Mon 12:00:51 AM 41.7808 -86.2367 84° East 426 490 19,000  Level Chicago Center
Mon 12:01:52 AM 41.8064 -86.0828 77° East 422 486 19,000  Level Chicago Center
Mon 12:02:53 AM 41.8300 -85.9286 78° East 423 487 19,000  Level Chicago Center
Mon 12:03:53 AM 41.8547 -85.7753 78° East 421 484 19,000  Level Chicago Center
Mon 12:04:54 AM 41.8789 -85.6197 78° East 423 487 19,000  Level Chicago Center
Mon 12:05:54 AM 41.9039 -85.4625 78° East 425 489 19,000  Level Chicago Center
Mon 12:06:55 AM 41.9281 -85.3075 78° East 422 486 19,000  Level Chicago Center
Mon 12:07:55 AM 41.9525 -85.1522 78° East 422 486 19,000  Level Chicago Center
Mon 12:08:56 AM 41.9758 -84.9975 78° East 422 486 19,000  Level Chicago Center
Mon 12:09:56 AM 41.9953 -84.8653 79° East 424 488 19,000 -793 Level Chicago Center
Mon 12:10:57 AM 42.0192 -84.7122 78° East 423 487 17,400 -1,934 Descending Chicago Center
Mon 12:11:57 AM 42.0408 -84.5656 79° East 408 470 15,100 -2,430 Descending Chicago Center
Mon 12:12:58 AM 42.0642 -84.3975 79° East 389 448 12,500 -2,069 Descending Chicago Center
Mon 12:13:53 AM 42.0803 -84.2958 78° East 374 430 11,100 -1,139 Descending Cleveland Center
Mon 12:14:17 AM 42.0897 -84.2233 80° East 358 412 11,000 -100 Descending Cleveland Center
Mon 12:14:53 AM 42.0992 -84.1636 78° East 342 394 11,000  Level Cleveland Center
Mon 12:15:17 AM 42.1061 -84.1047 81° East 313 360 11,000 -590 Level Cleveland Center
Mon 12:15:54 AM 42.1125 -84.0497 81° East 311 358 10,400 -1,279 Descending Cleveland Center
Mon 12:16:18 AM 42.1175 -83.9967 83° East 292 336 9,700 -1,300 Descending Cleveland Center
Mon 12:16:54 AM 42.1236 -83.9444 81° East 290 334 9,100 -1,279 Descending Cleveland Center
Mon 12:17:19 AM 42.1242 -83.8906 89° East 276 318 8,400 -1,600 Descending Cleveland Center
Mon 12:17:54 AM 42.1231 -83.8433 92° East 274 315 7,500 -1,700 Descending Cleveland Center
Mon 12:18:19 AM 42.1219 -83.7917 92° East 266 306 6,700 -1,475 Descending Cleveland Center
Mon 12:18:55 AM 42.1214 -83.7483 91° East 259 298 6,000 -1,527 Descending Cleveland Center
Mon 12:19:14 AM 42.1222 -83.7100 88° East 234 269 5,300 -1,700 Descending Cleveland Center
Mon 12:19:55 AM 42.1219 -83.6611 90° East 241 277 4,300 -1,300 Descending Cleveland Center
Mon 12:20:14 AM 42.1206 -83.6253 93° East 223 257 4,000 -885 Descending Cleveland Center
Mon 12:20:56 AM 42.1222 -83.5828 87° East 226 260 3,400 -982 Descending Cleveland Center
Mon 12:21:09 AM 42.1219 -83.5553 91° East 196 226 3,100 -500 Descending Cleveland Center
Mon 12:21:56 AM 42.1211 -83.5147 92° East 201 231 2,900 -500 Descending Cleveland Center
Mon 12:22:09 AM 42.1189 -83.4900 97° East 160 184 2,600 -600 Descending Cleveland Center
Mon 12:22:56 AM 42.1333 -83.4528 62° Northeast 170 196 2,300 -393 Descending Cleveland Center
Mon 12:23:10 AM 42.1372 -83.4419 64° Northeast 126 145 2,200 -492 Descending Cleveland Center
Mon 12:23:57 AM 42.1536 -83.4189 46° Northeast 137 158 1,800 -492 Descending Cleveland Center
Mon 12:24:11 AM 42.1625 -83.4144 20° North 116 133 1,700 -600 Descending Cleveland Center
Mon 12:24:57 AM 42.1831 -83.3989 29° Northeast 125 144 1,200 -636 Descending Cleveland Center
Mon 12:25:17 AM 42.1936 -83.3908 29° Northeast 116 133 1,000 -295 Descending Cleveland Center
Mon 12:25:58 AM 42.2078 -83.3808 28° Northeast 121 139 900 -146 Descending Cleveland Center
Mon 12:27:00 AM 42.2000 -83.3500 90° East  Level FlightAware Approximate
Mon 12:34:00 AM 42.2124 -83.3534 90° East  Level Estimated

Login

Don't have an account? Register now (free) for customized features, flight alerts, and more!